Regional Weather Roundup
Issued by NWS Charleston, WV

Home | Current Version | Previous Version | Text Only | Print | Product List | Glossary Off
Versions: 1 2 3 4 5 6 7 8 9 10 11 12 13 14 15 16 17 18 19 20 21 22 23 24 25 26 27 28 29 30 31 32 33 34 35 36 37 38 39 40 41 42 43 44 45 46 47 48 49 50

000
ASUS41 KRLX 022310
RWRRLX
West Virginia Regional Weather Roundup
National Weather Service Charleston WV
700 PM EDT THU JUL 02 2015

Note: "fair" indicates few or no clouds below 12,000 feet with no
significant weather and/or obstructions to visibility.

WVZ003-030000-
Northern Panhandle of West Virginia

CITY           SKY/WX    TMP DP  RH WIND       PRES   REMARKS
WHEELING       SUNNY     74  54  49 NW7       29.92F
$$

WVZ009-030000-
Northwest West Virginia

CITY           SKY/WX    TMP DP  RH WIND       PRES   REMARKS
PARKERSBURG    PTSUNNY   74  61  63 VRB3      29.94S
$$

WVZ006-030000-
Western West Virginia

CITY           SKY/WX    TMP DP  RH WIND       PRES   REMARKS
HUNTINGTON     PTSUNNY   69  66  90 SE3       29.90R
$$

WVZ015-030000-
West Central West Virginia

CITY           SKY/WX    TMP DP  RH WIND       PRES   REMARKS
CHARLESTON     MOSUNNY   73  64  73 SE3       29.91S HAZE
$$

WVZ022-031-030000-
North Central West Virginia

CITY           SKY/WX    TMP DP  RH WIND       PRES   REMARKS
CLARKSBURG     MOSUNNY   74  62  66 N5        29.92S
MORGANTOWN     MOSUNNY   76  54  46 NW6       29.93S
$$

WVZ025-035-042-045-030000-
Southern West Virginia

CITY           SKY/WX    TMP DP  RH WIND       PRES   REMARKS
BECKLEY        CLOUDY    66  62  87 E5        29.97S FOG
LOGAN          PTSUNNY   70  66  88 CALM      29.90R
BLUEFIELD      CLOUDY    69  64  84 CALM      30.00R
LEWISBURG      PTSUNNY   69  59  72 SW5       29.98R HAZE
$$

WVZ047-030000-
Northern Mountains of West Virginia

CITY           SKY/WX    TMP DP  RH WIND       PRES   REMARKS
ELKINS         PTSUNNY   71  57  61 CALM      29.96S
$$

WVZ052-030000-
Eastern Panhandle of West Virginia

CITY           SKY/WX    TMP DP  RH WIND       PRES   REMARKS
MARTINSBURG    CLOUDY    73  66  78 CALM      29.90S
PETERSBURG     CLOUDY    76  56  49 NW3       29.92R
$$


USA.gov is the U.S. government's official web portal to all federal, state and local government web resources and services.